This is the latest recevied weather packets stored in our database for station/object AB0TJ. If no packets are shown the sender has not sent any weather packets the latest 10 day(s).
| Time | Temp. | Humidity | Pressure | Rain* | Wind** | Luminosity | Snow |
|---|---|---|---|---|---|---|---|
| 1777747463 | 20.56° C | 23% | 1020.8 hPa | 0 mm | - | 814 W/m² | - |
| 1777746884 | 20.56° C | 22% | 1020.7 hPa | 0 mm | - | 806 W/m² | - |
| 1777746299 | 20.56° C | 23% | 1021.1 hPa | 0 mm | - | 797 W/m² | - |
| 1777745804 | 20.56° C | 24% | 1021.2 hPa | 0 mm | - | 789 W/m² | - |
| 1777745299 | 20.56° C | 23% | 1021.3 hPa | 0 mm | - | 780 W/m² | - |
| 1777744709 | 20.56° C | 24% | 1021.6 hPa | 0 mm | - | 768 W/m² | - |
| 1777744109 | 20° C | 25% | 1021.6 hPa | 0 mm | - | 754 W/m² | - |
| 1777743589 | 20° C | 26% | 1021.6 hPa | 0 mm | - | 743 W/m² | - |
| 1777743010 | 19.44° C | 27% | 1022 hPa | 0 mm | - | 726 W/m² | - |
| 1777742509 | 19.44° C | 26% | 1021.8 hPa | 0 mm | - | 712 W/m² | - |
| 1777741953 | 19.44° C | 26% | 1022.1 hPa | 0 mm | - | 692 W/m² | - |
| 1777741432 | 20° C | 26% | 1021.9 hPa | 0 mm | - | 677 W/m² | - |
| 1777740907 | 20° C | 26% | 1022 hPa | 0 mm | - | 654 W/m² | - |
| 1777740389 | 19.44° C | 26% | 1022.2 hPa | 0 mm | - | 637 W/m² | - |
| 1777739902 | 18.33° C | 28% | 1022.2 hPa | 0 mm | - | 619 W/m² | - |
| 1777739319 | 17.78° C | 28% | 1022.4 hPa | 0 mm | - | 595 W/m² | - |
| 1777738744 | 17.78° C | 28% | 1022.3 hPa | 0 mm | - | 569 W/m² | - |
| 1777738168 | 17.78° C | 29% | 1022.2 hPa | 0 mm | - | 543 W/m² | - |
| 1777737644 | 17.78° C | 29% | 1022.6 hPa | 0 mm | - | 520 W/m² | - |
| 1777737124 | 17.78° C | 28% | 1022.6 hPa | 0 mm | - | 497 W/m² | - |
| 1777736563 | 16.67° C | 30% | 1022.7 hPa | 0 mm | - | 469 W/m² | - |
| 1777736018 | 15.56° C | 32% | 1022.6 hPa | 0 mm | - | 438 W/m² | - |
| 1777735443 | 15.56° C | 32% | 1022.6 hPa | 0 mm | - | 413 W/m² | - |
| 1777734864 | 15° C | 31% | 1022.9 hPa | 0 mm | - | 381 W/m² | - |
| 1777734269 | 14.44° C | 31% | 1022.8 hPa | 0 mm | - | 347 W/m² | - |
* Rain latest hour (hover to see other rain measurements)
** Current wind speed in m/s (hover to see current wind gust speed)